User: anonymous
Location: Maiden
(35.5760°N, 81.2120°W)
Time: 05:46:27
(UTC-04:00)
Language:

Cosmos 2151 - Orbit

View from above orbital plane
View from above orbital plane
View from above satellite
View from above satellite

Ground track
Ground track

The orbit data is extracted from the following two-line orbital elements,

1 21422U 91042A   14292.49834939  .00002632  00000-0  26756-3 0   447
2 21422 082.4999 090.4668 0013381 298.8022 061.1853 14.90385032263677
Epoch (UTC): 19 October 2014 11:57:37
Eccentricity: 0.0013381
inclination: 82.4999°
perigee height: 587 km
apogee height: 606 km
right ascension of ascending node: 90.4668°
argument of perigee: 298.8022°
revolutions per day: 14.90385032
mean anomaly at epoch: 61.1853°
orbit number at epoch: 26367

The dashed part of the orbit path shows where the satellite is in the earth's shadow,  

DLR